BEIDOU 7 (C07)

Last updated on Oct. 29, 2020, 5:53 a.m. UTC

1 37256U 10068A   20302.37726815 -.00000206  00000-0  00000+0 0  9992
2 37256  51.2618 296.7564 0082103 215.5002 140.1821  1.00270053 36167
UTC
Height (km)
Latitude
Longitude
Inclination
Orbital Period
UTC large
Height (km)
Speed (km/s)
/
Latitude / Longitude
Inclination (degrees)
Orbital Period (minutes)
Azimuth
Elevation
Range (km)
Doppler Factor
iOS Compass Heading
iOS Angle

Next 30 passes for location: Hong Kong

Rise time Rise Azimuth (degrees) Set time Set Azimuth (degrees) Duration Max altitude (degrees)

No matching passes for this satellites